Flag for Canada Weather past 2 weeks in Halifax, Nova Scotia, Canada

Now
43 °F

Mostly cloudy.


Feels Like: 37 °F
Forecast: 49 / 56 °F
Wind: 9 mph from South

Location: Halifax International Airport

Current Time: May 22, 2015 at 7:11:42 AM

Latest Report: May 22, 2015 at 6:00 AM


Visibility: 15 mi

Pressure: 29.95 "Hg

Humidity: 76%

Dew point: 36 °F

Location of HalifaxLocation

Historic Weather in Halifax — Graph

°F

Halifax temperature yesterday

Maximum temperature yesterday: 68 °F (at 4:00 PM)
Minimum temperature yesterday: 45 °F (at 2:00 AM)
Average temperature yesterday: 56 °F

Past Weeks' High & Low Weather Summary

 TemperatureHumidityPressure
High77 °F (May 10, 4:00 PM)100% (May 10, 12:00 AM)30.46 "Hg (May 10, 12:00 AM)
Low32 °F (May 9, 4:00 AM)19% (May 7, 5:00 PM)29.48 "Hg (May 20, 4:51 PM)
Average51 °F65%30.06 "Hg
* Reported May 7 5:00 AM — May 22 5:00 AM, Halifax, Weather by CustomWeather, © 2015

Note: Actual official high and low records may vary slightly from our data, if they occured in-between our weather recording intervals... More about our weather records

Advertising

Halifax weather history for previous 24 hours

 ConditionsComfort  
Time TempWeatherWind HumidityBarometerVisibility
5:00 AM
Fri, May 22
41 °FPassing clouds.9 mph81%29.93 "Hg15 mi
4:00 AM43 °FPassing clouds.8 mph71%29.93 "Hg15 mi
3:00 AM46 °FPassing clouds.6 mph57%29.94 "Hg15 mi
2:00 AM46 °FPassing clouds.7 mph62%29.94 "Hg15 mi
1:00 AM50 °FClear.6 mph50%29.93 "Hg15 mi
12:00 AM52 °FClear.7 mph50%29.93 "Hg15 mi
11:00 PM
Thu, May 21
55 °FClear.9 mph44%29.93 "Hg15 mi
10:00 PM54 °FClear.9 mph54%29.91 "Hg15 mi
9:00 PM59 °FPassing clouds.10 mph42%29.87 "Hg15 mi
8:00 PM63 °FSunny.9 mph34%29.84 "Hg15 mi
7:00 PM64 °FSunny.16 mph30%29.82 "Hg15 mi
6:00 PM66 °FPassing clouds.13 mph28%29.81 "Hg15 mi
5:00 PM66 °FBroken clouds.21 mph24%29.79 "Hg15 mi
4:00 PM68 °FBroken clouds.17 mph26%29.78 "Hg14 mi
3:00 PM66 °FPartly sunny.17 mph32%29.78 "Hg15 mi
2:00 PM66 °FPartly sunny.21 mph30%29.78 "Hg15 mi
1:00 PM64 °FScattered clouds.22 mph32%29.78 "Hg15 mi
12:00 PM63 °FPassing clouds.13 mph37%29.79 "Hg15 mi
11:00 AM61 °FPassing clouds.17 mph39%29.79 "Hg15 mi
10:00 AM57 °FSunny.13 mph41%29.78 "Hg15 mi
9:00 AM54 °FSunny.17 mph47%29.77 "Hg15 mi
8:00 AM50 °FSunny.12 mph50%29.75 "Hg15 mi
7:00 AM46 °FSunny.10 mph57%29.72 "Hg15 mi
Weather by CustomWeather, © 2015

See weather overviewHow to use our weather pages